Temperature
24 21 20 21 21 22 21 21 20 21 21 20 18 17 16 16 16 15 15 15 15 15 16 17 17 18 19 19 19 19 20 20 20 20 20 20 20 20 20 20 19 19 19 19
20 20 22 22 22 21 20 19 19 20 21 20 17 16 16 15 15 14 14 14 14 14 15 16 17 17 18 18 18 19 19 19 19 20 20 20 20 20 20 20 19 19 19 19
20 21 22 21 20 20 20 19 19 19 19 19 17 15 14 14 14 14 13 13 13 13 13 14 15 16 16 17 17 18 18 19 19 19 19 19 19 19 19 19 19 19 18 18
20 20 20 19 19 19 18 19 19 19 18 16 17 14 12 13 13 13 12 12 12 12 13 14 14 15 15 16 16 17 17 18 19 19 19 19 19 19 19 19 18 18 18 18
19 19 18 18 18 18 18 18 18 18 17 15 15 13 12 12 12 12 12 12 12 12 12 13 13 14 14 15 15 16 16 17 18 18 19 19 19 19 19 18 18 18 17 17
19 20 19 18 19 18 17 16 16 14 14 14 13 13 12 11 11 11 12 12 11 11 12 12 13 13 14 14 14 15 15 16 16 17 17 18 18 18 18 18 18 17 17 17
18 18 19 19 17 16 15 13 13 13 12 13 13 12 11 11 12 11 11 11 11 11 11 12 12 13 13 13 14 14 14 15 15 15 16 16 17 17 17 17 17 17 16 16
17 16 17 17 16 16 15 13 12 13 13 12 12 12 11 12 12 12 11 11 11 11 11 11 12 12 13 13 13 13 14 14 14 14 15 15 15 16 16 16 16 16 15 15
15 16 18 17 16 15 15 13 14 12 13 12 12 12 12 12 12 12 11 11 11 11 11 11 12 12 12 13 13 13 13 13 14 14 14 14 14 15 15 15 15 15 15 15
16 16 17 17 16 15 14 14 11 11 12 12 12 11 10 11 11 11 11 11 10 11 11 11 11 12 12 12 12 13 13 13 13 13 14 14 14 14 14 14 14 14 14 14
16 15 15 15 14 13 13 13 11 10 11 11 11 11 11 11 11 10 11 10 11 11 11 11 11 12 12 12 12 13 13 13 13 13 13 13 13 14 14 14 14 14 14 14
15 12 13 15 15 15 14 13 11 11 10 10 10 10 12 11 11 11 11 11 11 11 11 11 12 12 12 12 12 12 13 13 13 13 13 13 13 13 14 14 14 14 14 14
15 13 12 13 14 14 14 13 12 10 9 10 10 11 12 12 12 12 12 12 12 12 12 12 12 12 12 12 12 12 12 13 13 13 13 13 13 14 14 14 14 14 14 14
15 12 13 14 13 14 14 13 13 11 10 10 11 11 11 11 11 12 13 13 13 13 13 13 12 12 12 12 12 12 12 12 13 13 13 13 13 13 14 14 14 14 14 14
14 13 14 14 15 15 14 14 13 12 11 11 12 12 12 12 12 13 13 14 14 13 13 13 13 13 12 12 12 12 12 12 12 12 13 13 13 13 13 13 13 13 13 14
14 14 14 15 15 15 14 14 14 13 13 12 12 12 13 14 14 14 14 14 14 14 14 14 14 13 13 12 12 12 12 12 12 12 12 12 12 12 12 12 12 13 13 13
14 14 13 13 15 15 14 14 14 14 14 13 13 13 14 13 14 14 14 14 14 14 14 14 14 14 13 13 12 12 12 12 12 12 12 12 12 12 12 12 12 12 12 12
14 13 12 13 14 14 14 15 15 15 14 14 14 14 14 14 15 15 15 14 14 14 14 14 14 14 13 13 13 12 12 12 12 12 12 12 12 12 12 12 12 11 11 12
14 14 13 12 14 14 14 15 15 14 14 15 14 15 15 15 14 14 15 15 15 14 14 14 14 14 14 13 13 13 12 12 12 12 12 12 12 12 11 11 11 11 11 11
14 13 13 13 15 15 15 15 16 15 14 15 15 15 15 14 11 13 15 15 15 15 15 15 14 14 14 13 13 13 12 12 12 12 11 11 11 11 11 11 11 11 11 11
15 14 14 14 15 14 15 16 16 13 14 16 16 15 15 15 13 15 15 15 15 15 15 15 15 14 14 14 13 13 13 12 12 12 12 11 11 11 11 11 11 11 11 11
14 14 14 13 14 15 15 15 14 14 16 16 16 16 16 15 15 15 15 15 15 15 15 15 15 15 14 14 14 13 13 13 12 12 12 11 11 11 11 11 11 11 11 11
13 13 12 13 14 15 17 17 17 17 16 16 16 16 15 15 15 15 15 15 15 15 15 15 15 15 15 14 14 13 13 13 13 12 12 11 11 11 11 11 11 11 11 11
15 14 13 13 14 15 17 17 17 17 17 16 16 16 15 15 15 15 15 15 15 15 15 15 15 15 15 14 14 14 13 13 13 12 12 11 11 11 11 11 11 11 11 10
15 15 13 14 14 15 16 17 17 17 16 16 16 16 15 15 15 15 15 15 15 15 15 15 15 15 15 14 14 14 14 13 13 12 12 11 11 11 11 11 11 10 10 10
15 14 13 13 15 15 16 17 17 16 16 16 16 15 15 15 15 15 15 15 15 15 15 15 15 15 15 15 14 14 14 13 13 12 12 11 11 11 11 11 10 10 10 10
Wind_Speed
5 8 7 6 6 5 4 6 5 4 5 7 10 11 13 16 18 17 16 15 15 14 13 13 13 13 12 12 11 10 9 8 4 2 3 5 6 6 6 7 8 10 11 12
8 8 5 7 10 9 9 7 6 4 5 5 9 12 12 17 18 16 16 16 17 17 18 17 16 14 13 12 12 11 10 8 6 3 3 3 4 4 5 4 5 7 8 10
9 4 7 12 12 9 6 5 4 5 6 4 7 7 12 11 16 18 18 16 16 17 17 17 17 14 13 13 12 11 10 9 8 6 3 1 1 0 2 3 4 4 5 6
8 6 10 11 9 7 4 5 5 4 3 3 3 2 8 11 15 20 19 18 17 17 16 15 15 15 14 13 11 10 10 9 8 7 3 4 5 6 6 5 4 3 3 4
5 6 10 9 6 7 5 8 6 3 1 2 6 5 6 9 14 19 18 17 17 17 16 15 14 13 12 12 11 10 10 10 9 8 5 3 4 5 4 5 6 5 3 3
6 4 6 5 4 6 6 6 7 6 5 5 6 4 6 8 13 16 17 17 16 15 15 15 13 11 11 11 10 10 9 9 9 9 7 4 1 4 6 6 6 5 4 4
6 8 6 6 7 9 9 7 6 8 7 3 4 6 3 7 10 12 15 16 15 14 13 14 14 13 12 11 10 9 9 8 9 8 8 7 5 3 4 4 4 4 3 3
4 6 7 7 5 4 6 6 5 2 1 2 5 4 2 6 9 10 11 13 14 14 13 13 13 11 10 10 9 8 8 8 8 8 7 7 7 5 4 4 4 3 2 2
5 3 3 6 7 5 5 4 1 5 2 3 3 3 4 8 12 12 14 15 15 15 14 13 13 11 10 9 9 8 7 7 7 7 6 7 7 6 6 5 4 3 2 2
6 5 3 4 8 9 5 2 6 5 3 2 2 3 6 13 15 15 16 15 15 15 14 14 12 10 9 9 8 8 8 7 7 7 6 6 6 6 6 6 5 4 4 4
5 6 5 6 7 8 8 6 5 5 4 3 2 3 4 7 9 11 12 13 13 13 12 12 11 10 9 9 9 8 8 8 8 8 7 7 7 6 6 5 5 4 3 2
4 6 4 2 1 3 5 5 3 5 3 3 3 2 6 6 7 8 10 10 10 10 10 10 10 10 10 10 9 9 8 8 8 7 7 7 6 6 6 5 5 4 3 3
5 6 4 3 6 7 6 5 4 6 5 3 2 3 5 6 7 7 8 9 8 9 9 8 8 9 9 9 9 8 9 9 8 7 8 8 8 8 7 6 5 6 5 4
5 5 5 5 4 1 3 5 4 5 4 3 1 3 6 7 7 7 8 8 7 7 8 7 7 8 8 8 8 8 9 9 8 8 9 9 9 8 8 7 7 6 6 5
6 5 4 4 5 4 4 4 5 5 5 5 4 3 5 6 5 6 7 7 7 7 8 8 7 6 7 7 7 8 9 9 9 9 10 9 9 9 9 9 9 9 9 9
5 6 4 2 4 4 3 3 4 3 3 3 2 3 5 4 3 5 6 7 7 7 7 7 7 6 6 6 6 7 8 8 8 9 9 9 9 10 9 9 8 9 9 8
4 6 4 3 4 2 2 5 4 3 3 5 4 4 3 1 2 3 4 5 6 7 7 8 6 5 4 4 4 6 6 7 8 8 9 9 9 9 9 9 9 9 8 8
6 5 4 3 3 4 6 4 6 5 3 5 4 4 4 4 2 2 2 3 5 6 7 7 6 5 3 3 4 5 6 7 7 7 8 8 8 8 8 9 8 8 6 7
4 6 4 4 3 3 3 4 6 5 3 5 4 2 3 3 2 4 4 2 3 4 4 4 4 3 3 3 3 4 5 6 6 7 7 7 7 8 8 8 7 6 6 7
4 5 5 3 3 5 6 6 6 5 2 4 6 5 4 5 3 4 5 3 4 4 3 4 4 3 3 2 2 4 4 5 5 5 5 5 6 7 8 7 7 6 6 6
1 2 2 3 3 6 4 6 8 4 7 6 7 7 6 5 5 5 4 3 4 3 4 4 4 3 1 0 2 3 2 2 2 4 6 6 6 7 7 7 7 7 7 7
7 5 4 4 3 7 7 9 8 8 5 8 8 7 6 4 3 0 2 3 5 5 5 5 4 4 2 1 1 1 1 1 2 5 6 7 7 7 7 8 8 7 7 8
7 8 6 7 7 5 9 8 7 7 8 8 8 6 6 4 2 1 2 3 5 5 5 4 3 4 4 2 0 0 2 1 4 6 6 6 7 7 7 7 7 7 7 6
3 4 4 2 5 4 6 5 7 8 9 8 8 7 6 5 3 2 1 2 4 5 5 4 4 4 4 3 1 1 1 3 6 6 5 5 6 6 7 6 6 6 6 6
7 6 4 3 4 4 5 6 8 8 9 8 7 7 7 6 3 2 1 2 3 4 4 4 4 3 3 2 2 3 2 5 6 6 4 4 4 5 5 5 5 5 4 4
6 8 8 8 9 9 10 10 10 11 10 10 9 8 6 6 4 3 1 1 2 3 4 4 5 3 2 1 2 3 3 6 7 5 4 3 3 3 3 4 3 6 4 6
Wind_Direction
43 59 59 58 73 96 80 65 36 20 11 54 75 64 43 35 38 34 25 21 17 13 8 9 12 13 14 15 15 10 0 350 346 287 227 204 201 198 198 196 193 191 187 183
56 49 67 66 50 54 55 54 15 335 355 57 86 68 48 42 37 30 24 17 9 3 3 3 3 8 8 6 6 5 355 343 329 296 249 226 212 198 197 193 189 183 176 172
91 43 49 55 37 30 37 46 347 319 351 39 105 62 31 26 28 24 19 13 7 2 359 356 355 358 1 2 0 357 346 341 331 315 274 207 173 158 176 184 188 183 169 161
65 20 47 50 29 18 334 325 318 312 12 325 43 95 22 357 12 13 6 2 1 355 353 351 349 351 353 351 350 348 346 344 340 333 298 218 199 201 196 179 176 151 149 153
72 41 48 39 8 5 302 300 300 288 169 43 15 98 11 357 4 357 353 352 354 350 345 343 344 343 343 345 347 347 347 351 348 349 340 279 220 206 168 156 159 157 150 146
63 45 53 10 350 355 335 355 23 43 70 55 349 75 27 3 344 338 342 343 345 343 341 339 340 341 342 343 348 350 351 352 352 357 1 2 205 175 157 164 170 165 157 157
40 20 15 7 4 358 23 45 32 22 30 41 21 71 33 333 335 333 333 333 336 340 342 339 339 340 339 342 348 350 351 354 355 4 11 17 35 79 127 149 156 150 152 162
82 17 14 13 13 351 16 76 108 113 318 346 31 53 306 323 332 331 334 337 342 347 345 343 340 338 339 346 350 351 357 359 0 9 16 24 37 53 65 77 97 113 122 131
121 99 72 44 24 42 24 18 137 139 65 73 45 6 316 334 344 348 351 350 350 350 346 345 347 348 350 355 354 358 7 9 8 13 26 36 42 55 64 66 70 79 89 107
123 112 25 14 17 18 51 41 54 68 77 69 43 9 332 332 337 343 347 347 346 351 353 351 352 353 355 354 356 11 17 18 18 22 32 46 44 51 60 64 64 65 65 59
86 105 13 27 29 2 8 24 57 77 90 111 60 333 305 304 318 329 334 337 340 346 349 353 352 353 357 1 7 14 19 26 27 28 33 40 41 46 56 59 54 57 64 59
61 101 71 42 336 39 45 30 75 104 68 76 115 286 292 294 301 311 320 328 336 341 342 346 348 353 360 5 10 14 19 25 23 22 32 37 37 43 50 47 37 34 33 36
80 101 93 356 340 2 28 14 66 104 96 78 87 299 298 308 312 313 315 323 330 335 342 346 350 358 0 6 10 16 19 17 17 23 31 34 30 32 36 32 28 31 34 39
98 78 130 155 200 201 52 32 59 91 100 110 179 261 302 315 322 322 317 319 331 341 348 355 355 0 4 9 13 15 17 18 22 27 33 33 29 30 33 32 31 32 36 45
86 84 98 137 153 131 116 90 75 88 137 149 204 239 274 292 300 309 315 326 344 356 355 356 360 5 8 14 16 19 24 27 30 36 37 33 30 33 37 40 42 43 50 58
90 122 126 147 170 141 122 137 119 111 129 151 199 260 255 274 304 325 333 341 352 357 357 357 3 14 19 23 27 29 31 28 35 39 35 32 36 39 39 40 44 48 52 56
99 129 131 190 197 154 230 203 181 168 178 173 200 236 231 267 320 324 337 355 353 356 359 0 3 17 25 28 37 39 35 36 39 39 35 34 38 39 35 42 47 48 49 54
123 125 135 138 141 245 256 211 164 164 193 188 204 229 199 204 237 300 313 7 353 351 357 355 360 16 29 37 41 43 42 43 42 39 35 34 38 37 33 39 42 41 43 49
125 133 120 129 179 270 281 198 171 172 220 205 182 181 182 167 43 340 314 333 337 338 345 339 349 18 42 48 56 58 43 41 43 40 38 36 41 41 37 35 31 31 42 44
68 92 108 126 170 241 245 200 158 120 230 220 154 140 135 113 79 286 293 321 343 340 337 341 352 24 42 35 80 76 48 42 40 42 47 47 48 48 42 37 36 36 47 46
16 50 126 173 222 257 246 143 119 156 228 187 151 146 141 159 197 240 290 348 352 339 334 350 6 12 355 241 100 80 49 35 43 62 59 51 50 55 50 45 42 43 48 48
176 177 203 170 206 256 185 141 175 209 162 145 146 152 153 176 195 210 26 8 358 351 342 352 7 357 327 288 112 66 343 336 80 82 69 58 49 52 53 51 44 40 43 45
184 187 186 188 213 237 175 186 196 154 146 152 153 155 146 144 138 74 37 4 351 348 344 346 358 353 341 328 176 259 294 91 105 97 84 75 65 53 49 52 48 41 37 42
255 156 136 199 259 192 185 167 151 153 152 159 154 149 142 142 130 102 59 360 354 346 343 342 355 359 344 334 334 314 319 122 118 118 111 96 83 66 51 47 47 50 40 37
218 165 153 207 221 172 214 184 160 152 146 147 148 150 151 145 135 139 178 338 345 342 337 348 355 346 331 338 354 9 82 119 117 126 128 114 102 96 76 61 48 50 39 35
196 173 175 210 200 180 203 194 165 154 160 159 156 160 163 160 162 151 194 303 332 341 342 347 349 352 343 0 4 23 92 124 125 126 137 141 136 126 116 104 66 32 31 32
Height
1528 1534 1541 1539 1536 1537 1539 1543 1545 1540 1536 1538 1545 1549 1550 1549 1546 1546 1545 1543 1541 1539 1536 1533 1530 1528 1525 1523 1521 1519 1519 1518 1519 1519 1520 1521 1521 1523 1524 1526 1527 1529 1531 1533
1536 1543 1539 1535 1535 1537 1541 1546 1548 1543 1537 1540 1549 1554 1555 1555 1555 1554 1551 1548 1544 1540 1535 1531 1529 1527 1524 1521 1519 1517 1516 1515 1515 1515 1515 1517 1517 1518 1520 1522 1524 1525 1527 1529
1543 1545 1538 1537 1541 1543 1544 1548 1548 1546 1542 1541 1548 1560 1561 1559 1558 1556 1554 1550 1547 1543 1538 1533 1529 1526 1523 1520 1518 1515 1514 1512 1511 1511 1511 1512 1513 1514 1514 1517 1519 1521 1523 1525
1544 1544 1541 1544 1547 1546 1551 1543 1542 1542 1549 1556 1551 1569 1571 1564 1560 1557 1555 1552 1547 1543 1539 1535 1530 1526 1523 1520 1517 1514 1511 1509 1507 1506 1506 1507 1507 1507 1509 1511 1513 1516 1518 1520
1551 1548 1548 1551 1551 1548 1547 1541 1540 1541 1547 1558 1558 1569 1577 1568 1566 1563 1559 1554 1548 1544 1540 1535 1530 1526 1523 1519 1516 1513 1510 1507 1504 1503 1502 1502 1502 1503 1504 1506 1508 1510 1512 1515
1551 1549 1550 1552 1549 1547 1545 1543 1543 1549 1557 1573 1572 1574 1582 1578 1575 1568 1561 1556 1550 1545 1540 1535 1530 1526 1522 1518 1515 1512 1508 1505 1503 1500 1498 1498 1498 1499 1500 1502 1504 1506 1508 1510
1559 1557 1555 1553 1554 1551 1551 1560 1570 1573 1580 1583 1574 1578 1587 1580 1575 1570 1564 1558 1552 1545 1539 1534 1529 1524 1521 1518 1514 1511 1508 1505 1502 1499 1497 1496 1496 1497 1498 1499 1502 1503 1505 1507
1569 1573 1562 1559 1559 1559 1559 1565 1581 1586 1587 1585 1580 1585 1586 1578 1575 1570 1564 1558 1552 1545 1539 1534 1529 1525 1521 1518 1514 1512 1509 1506 1503 1500 1498 1496 1496 1496 1497 1498 1500 1502 1503 1505
1571 1574 1564 1562 1560 1560 1564 1568 1568 1578 1579 1587 1588 1587 1582 1577 1573 1569 1564 1559 1552 1546 1540 1534 1529 1525 1522 1518 1515 1512 1509 1507 1504 1502 1500 1498 1497 1497 1498 1499 1500 1501 1502 1504
1561 1573 1568 1565 1563 1563 1565 1567 1575 1582 1589 1593 1592 1592 1592 1581 1575 1570 1565 1560 1554 1548 1541 1535 1530 1526 1523 1520 1517 1514 1511 1509 1507 1504 1503 1501 1500 1500 1500 1500 1501 1502 1503 1504
1559 1573 1576 1573 1576 1576 1572 1573 1578 1585 1588 1597 1599 1599 1587 1583 1578 1573 1568 1562 1556 1550 1544 1538 1533 1529 1525 1521 1518 1516 1513 1511 1509 1507 1506 1504 1503 1503 1503 1503 1503 1504 1504 1505
1562 1575 1584 1579 1574 1572 1573 1575 1579 1589 1595 1596 1599 1601 1583 1581 1578 1574 1569 1563 1558 1552 1547 1542 1536 1532 1528 1524 1521 1518 1516 1514 1512 1511 1509 1508 1507 1506 1506 1506 1506 1506 1507 1507
1563 1576 1590 1589 1586 1579 1578 1577 1579 1586 1594 1598 1600 1599 1583 1580 1577 1573 1569 1564 1560 1555 1549 1545 1540 1536 1532 1528 1524 1522 1519 1517 1515 1514 1512 1511 1510 1509 1509 1509 1509 1509 1509 1509
1562 1576 1584 1589 1589 1583 1583 1581 1580 1586 1596 1597 1596 1593 1585 1580 1577 1573 1569 1566 1561 1557 1553 1548 1544 1540 1536 1533 1529 1526 1523 1520 1518 1517 1515 1514 1513 1512 1511 1511 1511 1510 1510 1511
1564 1579 1579 1580 1578 1579 1581 1582 1582 1585 1589 1594 1591 1588 1584 1580 1577 1574 1570 1567 1563 1559 1555 1551 1548 1545 1541 1537 1534 1531 1528 1525 1523 1521 1519 1518 1517 1516 1514 1513 1513 1512 1512 1512
1567 1578 1580 1581 1579 1579 1582 1581 1582 1583 1584 1586 1586 1585 1579 1578 1576 1574 1571 1568 1564 1561 1558 1554 1551 1548 1545 1542 1539 1536 1533 1530 1528 1525 1523 1522 1521 1519 1518 1517 1516 1515 1514 1513
1570 1577 1584 1588 1581 1582 1588 1581 1580 1581 1581 1582 1585 1582 1578 1577 1576 1574 1572 1569 1566 1563 1560 1557 1554 1551 1548 1546 1543 1540 1537 1535 1532 1529 1528 1526 1524 1522 1521 1520 1518 1517 1516 1515
1569 1576 1584 1587 1588 1593 1583 1573 1574 1577 1577 1577 1577 1576 1576 1576 1575 1574 1572 1570 1568 1565 1562 1560 1557 1554 1551 1549 1546 1543 1541 1538 1536 1533 1531 1530 1528 1526 1524 1523 1521 1520 1519 1517
1565 1572 1582 1589 1590 1585 1579 1573 1573 1577 1578 1574 1575 1574 1575 1575 1575 1574 1573 1571 1569 1567 1564 1562 1559 1556 1554 1551 1549 1547 1544 1542 1539 1537 1535 1533 1531 1529 1527 1525 1524 1523 1521 1520
1566 1570 1579 1584 1585 1586 1574 1567 1569 1575 1579 1573 1573 1573 1574 1575 1578 1576 1573 1571 1569 1567 1565 1563 1561 1558 1556 1554 1551 1549 1547 1545 1542 1540 1538 1536 1534 1532 1530 1528 1527 1525 1524 1522
1572 1574 1578 1581 1581 1575 1565 1565 1570 1582 1577 1570 1571 1572 1573 1574 1575 1574 1573 1571 1570 1568 1566 1564 1562 1559 1557 1555 1553 1551 1549 1547 1546 1544 1541 1539 1537 1534 1533 1531 1530 1528 1526 1525
1571 1575 1577 1580 1581 1576 1561 1564 1569 1568 1564 1567 1570 1572 1573 1573 1573 1573 1572 1571 1570 1568 1566 1564 1562 1561 1559 1557 1555 1553 1551 1550 1548 1546 1544 1542 1539 1537 1536 1534 1533 1531 1529 1527
1563 1563 1565 1567 1567 1556 1556 1558 1560 1561 1564 1567 1569 1571 1572 1573 1573 1573 1572 1571 1570 1568 1567 1565 1563 1562 1560 1558 1557 1555 1553 1552 1550 1548 1546 1545 1543 1541 1539 1537 1536 1534 1532 1530
1555 1554 1557 1558 1555 1553 1555 1557 1558 1561 1563 1566 1568 1570 1572 1572 1573 1573 1572 1571 1570 1569 1567 1566 1564 1563 1561 1559 1558 1556 1554 1553 1552 1550 1549 1547 1546 1544 1543 1541 1539 1538 1536 1533
1549 1551 1554 1555 1553 1554 1554 1555 1557 1560 1563 1565 1568 1569 1571 1572 1572 1572 1572 1571 1570 1569 1568 1567 1565 1563 1562 1560 1559 1557 1556 1555 1553 1552 1551 1550 1548 1547 1546 1544 1543 1541 1539 1537
1543 1545 1549 1550 1545 1547 1549 1552 1555 1558 1561 1563 1566 1568 1570 1571 1572 1572 1572 1571 1570 1569 1568 1567 1566 1564 1563 1561 1560 1558 1557 1556 1555 1553 1552 1551 1550 1549 1548 1547 1545 1544 1542 1539